Tracking 18850 objects as of 22-Nov-2017
HD Live streaming from Space Station
objects crossing your sky now

FENGYUN 1C DEB

Track FENGYUN 1C DEB now!
10-day predictions


NORAD ID: 30183
Int'l Code: 1999-025UQ
Perigee: 853.0 km
Apogee: 892.7 km
Inclination: 99.1 °
Period: 102.3 minutes
Semi major axis: 7243 km
RCS: 0.0464 m2 (small)
Launch date: May 10, 1999
Source: People's Republic of China (PRC)
Launch site: Taiyaun Space Center, China (TSC)

Note: This is SATELLITE DEBRIS
aabbcc
Your satellite tracking list
Your tracking list is empty




NASA's NSSDC Master Catalog

Two Line Element Set (TLE):
1 30183U 99025UQ  17325.92022172 +.00000326 +00000-0 +21723-3 0  9992
2 30183 099.0976 344.0446 0027375 244.8912 233.7917 14.08146216556883
Source of the keplerian elements: AFSPC